{"data":{"norad_id":64581,"intl_designator":"2025-135BF","name":"ICEYE-X55","alt_names":[],"object_type":"PAYLOAD","status":"ACTIVE","operator":null,"country":"FIN","launch_date":"2025-06-23","launch_site_code":"AFWTR","launch_vehicle":null,"mission":null,"orbit_class":"UNKNOWN","rcs_meters":null,"size_class":null,"mass_kg":null,"dimensions":null,"purposes":[],"wikipedia_slug":null,"has_3d_model":false,"image_url":null,"decayed_at":null,"tle_current":{"epoch":"2026-05-25T03:26:11.107968Z","epoch_age_seconds":62999,"freshness":"FRESH","line1":"1 64581U 25135BF  26145.14318412  .00003118  00000+0  29002-3 0  9990","line2":"2 64581  97.7718 260.1462 0004642  77.3693 282.8047 14.95049337 50479","mean_motion":14.95049337,"eccentricity":0.0004642,"inclination_deg":97.7718,"raan_deg":260.1462,"arg_perigee_deg":77.3693,"mean_anomaly_deg":282.8047,"bstar":0.00029002,"rev_number":5047,"period_min":96.317891614837,"perigee_km":578.98862032473,"apogee_km":585.45061540875,"semimajor_km":6960.3566178667,"source":"CELESTRAK","updated_at":"2026-05-25T13:38:04.624437Z"}}}